Home   Weather   North Bay   Past weeks

Flag for Canada Past Weather in North Bay, Ontario, Canada — Yesterday and Last 2 Weeks

Now
57 °F

Scattered clouds.


Feels Like: 57 °F
Forecast: 36 / 61 °F
Wind: 3 mph from Southwest

Location: North Bay

Current Time: Sep 25, 2016 at 3:09:36 PM

Latest Report: Sep 25, 2016 at 2:00 PM


Visibility: 30 mi

Pressure: 30.27 "Hg

Humidity: 39%

Dew Point: 32 °F

Location of North BayLocation

Past Weather in North Bay — Graph

°F

North Bay Temperature Yesterday

Maximum temperature yesterday: 59 °F (at 4:00 PM)
Minimum temperature yesterday: 34 °F (at 5:00 AM)
Average temperature yesterday: 48 °F

High & Low Weather Summary for the Past Weeks

 TemperatureHumidityPressure
High75 °F (Sep 19, 3:00 PM)100% (Sep 10, 7:00 PM)30.39 "Hg (Sep 10, 7:00 PM)
Low32 °F (Sep 25, 7:00 AM)39% (Sep 25, 2:00 PM)29.54 "Hg (Sep 10, 10:00 PM)
Average58 °F81%30.08 "Hg
* Reported Sep 10 2:00 PM — Sep 25 2:00 PM, North Bay, Weather by CustomWeather, © 2016

Note: Actual official high and low records may vary slightly from our data, if they occured in-between our weather recording intervals... More about our weather records

Advertising

North Bay Weather History for the Previous 24 Hours

Scroll right to see more
 ConditionsComfort  
Time TempWeatherWind HumidityBarometerVisibility
2:00 PM
Sun, Sep 25
57 °FScattered clouds.3 mph39%30.27 "Hg30 mi
1:00 PM55 °FPartly sunny.3 mph44%30.28 "Hg30 mi
12:00 PM54 °FPartly sunny.3 mph51%30.28 "Hg30 mi
11:00 AM52 °FScattered clouds.6 mph50%30.30 "Hg30 mi
10:00 AM50 °FScattered clouds.7 mph58%30.29 "Hg30 mi
9:00 AM48 °FPartly sunny.5 mph58%30.31 "Hg30 mi
8:00 AM34 °FPartly sunny.2 mph93%30.32 "Hg30 mi
7:00 AM32 °FPassing clouds.No wind87%30.30 "Hg30 mi
6:00 AM34 °FClear.3 mph87%30.28 "Hg9 mi
5:00 AM34 °FClear.2 mph93%30.28 "Hg9 mi
4:00 AM34 °FClear.2 mph93%30.28 "Hg9 mi
3:00 AM34 °FClear.No wind93%30.30 "Hg9 mi
2:00 AM34 °FClear.No wind93%30.30 "Hg9 mi
1:00 AM37 °FClear.3 mph87%30.30 "Hg9 mi
12:00 AM45 °FClear.9 mph61%30.29 "Hg9 mi
11:00 PM
Sat, Sep 24
45 °FClear.8 mph61%30.29 "Hg9 mi
10:00 PM46 °FClear.7 mph62%30.29 "Hg15 mi
9:00 PM46 °FClear.7 mph66%30.28 "Hg15 mi
8:00 PM48 °FClear.6 mph71%30.29 "Hg15 mi
7:00 PM52 °FSunny.5 mph58%30.29 "Hg30 mi
6:00 PM57 °FSunny.8 mph41%30.27 "Hg30 mi
5:00 PM57 °FPassing clouds.9 mph44%30.28 "Hg30 mi
4:00 PM59 °FScattered clouds.13 mph45%30.27 "Hg30 mi
3:00 PM57 °FScattered clouds.10 mph51%30.29 "Hg30 mi
Weather by CustomWeather, © 2016

See weather overviewHow to use our weather pages